Temperature
15 15 15 15 15 15 15 15 15 15 15 15 15 15 15 15 15 15 15 15 15 15 15 15 15 15 15 15 15 15 15 15 15 15 15 15 15 15 15 15 15 15 15
15 15 15 15 15 15 15 15 15 15 15 15 15 15 15 15 15 14 14 14 15 15 15 15 15 14 15 15 15 14 14 15 15 15 14 15 15 15 15 15 15 15 15
15 15 15 15 15 15 15 15 15 15 15 15 15 14 14 14 14 14 14 14 14 14 14 14 14 14 14 14 14 14 14 14 14 14 14 14 14 14 14 14 14 14 14
15 15 15 15 15 14 14 14 14 14 14 14 14 14 14 14 14 14 14 14 14 14 14 14 14 14 14 14 14 14 14 14 14 14 14 14 14 14 14 14 14 14 14
15 15 15 15 14 14 14 14 14 14 14 14 14 14 14 14 14 14 14 14 14 13 13 14 14 14 13 13 13 13 13 13 13 13 13 13 13 13 13 13 14 14 14
15 15 15 15 14 14 14 14 14 14 14 14 14 14 14 14 14 14 14 14 14 13 13 13 13 13 13 13 13 13 13 13 13 13 13 13 13 13 13 13 13 13 13
15 15 15 14 14 14 14 14 14 14 14 14 14 14 14 13 13 13 13 13 13 13 13 13 13 13 12 13 13 13 13 13 13 13 13 13 13 13 13 13 13 13 13
15 15 15 14 14 14 14 14 14 14 13 13 14 14 14 14 13 13 13 13 13 13 13 13 13 12 12 12 12 12 12 12 12 12 12 12 12 12 12 12 12 12 12
15 15 15 14 14 14 14 14 14 14 13 13 13 14 15 15 13 13 13 13 13 13 13 13 12 12 12 12 12 12 12 12 12 12 12 12 12 12 12 12 12 12 12
15 15 15 14 14 14 14 14 14 13 13 13 13 13 14 14 14 14 13 13 13 13 12 12 12 12 12 12 12 12 12 12 12 12 12 12 12 12 12 12 12 12 12
15 15 14 14 14 14 14 13 13 13 13 13 13 13 13 13 13 14 13 12 12 12 12 12 12 12 12 11 11 12 12 12 12 11 11 11 11 11 11 11 11 11 11
15 14 14 14 14 14 14 14 13 13 13 13 13 13 13 13 13 13 14 13 12 12 12 12 12 12 12 11 11 12 12 12 12 12 11 11 11 11 11 11 11 11 11
14 14 14 14 14 14 14 13 13 13 13 13 13 13 13 13 13 13 13 13 13 12 12 12 12 12 11 11 12 12 12 12 11 11 11 11 11 11 11 10 10 10 10
14 14 14 14 14 14 13 13 13 13 13 13 13 13 13 12 13 12 12 13 13 12 12 11 11 11 11 11 11 12 11 11 11 11 11 11 11 11 10 10 10 10 10
14 14 14 14 14 13 13 13 13 13 13 13 12 12 12 12 12 12 12 12 13 13 13 12 11 11 11 11 11 11 11 11 11 11 11 11 11 10 10 10 10 10 10
14 14 14 13 13 13 13 13 13 13 13 12 13 12 12 12 12 12 12 12 12 12 12 12 11 11 11 11 11 10 10 11 11 11 11 11 10 10 10 10 10 10 10
13 13 13 13 13 13 13 13 13 12 12 12 12 12 12 12 12 12 12 12 12 12 12 11 11 11 11 10 11 10 10 10 10 10 10 10 10 10 10 10 10 10 10
13 13 13 13 13 13 13 13 12 12 12 12 12 12 12 12 12 12 12 11 11 11 11 11 11 11 10 10 10 10 10 10 9 10 10 10 10 10 10 10 10 10 10
13 13 13 13 13 12 12 12 12 12 12 12 12 11 11 11 11 11 11 11 11 11 11 11 11 11 10 10 10 10 10 10 9 9 10 10 10 10 10 10 10 9 9
13 12 12 12 12 12 12 12 12 12 12 12 12 11 11 11 11 11 11 11 11 11 11 11 11 11 10 10 10 10 9 9 9 9 9 9 9 9 10 9 9 9 9
12 12 12 12 12 12 12 12 12 12 12 11 11 11 11 11 11 11 11 11 11 11 11 10 10 10 10 10 10 10 9 9 9 9 9 9 9 9 9 9 9 9 9
12 12 12 12 12 12 12 12 11 11 11 11 11 11 11 11 11 11 11 11 11 10 10 10 10 10 10 10 10 9 9 9 9 9 9 9 9 9 8 8 9 9 9
12 11 11 11 11 11 11 11 11 11 11 11 11 10 10 11 10 10 10 10 10 10 10 10 10 10 10 10 10 9 9 9 9 9 9 8 8 8 8 8 9 9 8
11 11 11 11 11 11 11 11 11 11 10 10 10 10 10 10 10 10 10 10 10 10 10 10 9 9 9 9 9 9 9 9 8 9 8 8 8 8 8 8 8 8 8
11 11 11 11 10 10 10 10 10 10 10 10 10 10 10 10 10 10 9 9 9 9 10 10 9 9 9 9 9 9 9 8 8 8 8 8 8 8 8 8 8 8 8
11 11 10 10 10 10 10 10 10 10 9 9 10 10 10 10 9 9 9 9 9 9 9 9 9 9 9 9 9 9 8 8 8 8 8 8 8 7 7 8 8 8 8
Wind_Speed
3 3 4 4 4 5 5 5 5 6 6 7 7 7 7 8 8 8 9 13 13 12 12 12 13 12 12 12 12 12 12 11 11 11 10 10 10 11 11 11 10 10 9
3 3 3 4 4 5 5 5 6 5 5 5 6 7 7 7 8 8 8 10 12 13 13 13 13 12 12 12 12 12 12 12 11 11 11 11 11 11 11 11 10 10 10
3 3 3 3 4 4 4 4 6 5 5 5 5 6 6 7 7 7 8 7 9 12 13 13 13 12 12 11 11 12 12 12 12 11 11 11 11 11 11 11 11 12 11
3 3 2 3 4 4 3 3 3 4 4 3 4 4 4 5 6 6 6 7 7 7 10 12 12 12 11 11 12 11 11 11 11 11 12 11 10 10 11 11 11 11 11
3 3 2 2 3 3 2 2 2 2 3 3 3 3 4 4 5 5 6 6 7 6 7 9 11 12 11 11 11 11 10 11 11 11 10 10 10 9 9 10 10 10 10
2 2 2 2 2 2 2 2 2 2 2 2 3 3 3 3 4 4 5 5 5 6 6 6 7 9 11 10 10 10 10 9 9 10 10 9 9 9 9 9 9 9 9
2 2 2 2 2 1 2 2 2 2 1 1 2 3 3 3 3 4 3 3 5 5 5 6 5 6 7 9 10 10 10 9 8 8 8 9 9 9 9 9 9 9 9
2 2 2 2 2 2 2 3 3 1 1 1 1 2 2 3 2 2 2 3 3 4 4 5 5 5 6 6 10 9 9 9 9 8 8 8 8 8 8 8 8 9 8
3 3 3 2 2 2 2 3 3 3 2 1 1 2 1 1 2 2 2 2 3 2 3 3 4 5 5 5 6 9 9 9 8 7 7 7 6 6 7 7 7 7 7
3 4 4 4 3 2 3 3 3 3 3 2 1 1 2 1 2 2 2 1 2 1 2 2 2 3 4 5 6 8 8 7 7 6 5 5 5 5 5 5 5 5 5
3 4 4 4 4 3 3 3 3 3 3 3 2 2 1 1 3 2 2 2 2 1 1 1 1 2 3 3 4 6 6 6 6 5 4 4 4 4 3 3 3 3 3
3 4 4 4 4 4 4 4 4 4 3 3 3 3 3 2 3 3 3 3 2 2 1 1 1 1 1 2 3 5 4 4 4 4 4 3 3 2 2 2 2 2 2
3 4 4 4 4 4 4 4 5 4 4 4 4 3 3 3 3 3 3 3 2 2 2 2 2 2 2 1 2 3 3 2 2 2 3 2 2 2 2 1 1 1 1
3 3 4 4 4 4 4 4 5 5 4 4 4 4 3 3 3 3 4 3 3 3 3 3 2 3 2 2 2 3 2 2 1 0 1 1 1 1 1 1 1 1 1
3 3 4 4 4 4 4 4 4 5 4 4 4 4 4 3 3 3 4 4 4 4 4 3 3 3 3 3 3 3 2 3 2 2 1 2 2 2 2 2 3 2 2
3 4 4 4 5 5 5 5 5 5 5 4 3 4 4 3 3 3 4 4 5 5 4 3 3 3 3 4 3 4 2 4 4 3 2 3 3 3 3 3 3 4 4
3 4 5 4 5 5 5 5 5 5 6 5 5 5 5 4 4 4 4 4 4 4 4 3 3 3 4 4 3 4 4 4 4 5 4 4 4 4 4 4 5 5 5
3 4 4 4 4 5 5 5 6 6 6 6 6 6 6 4 5 4 4 5 4 5 5 4 4 4 5 4 4 4 4 4 4 4 5 4 4 4 4 5 5 5 5
4 4 4 4 4 5 5 5 6 6 6 6 6 6 6 6 6 4 5 5 4 4 4 5 4 3 4 4 4 4 5 4 4 4 6 6 6 5 5 5 5 5 5
3 3 4 4 5 5 5 5 6 6 6 6 6 6 6 6 6 5 5 5 4 4 5 5 4 4 4 4 4 4 4 4 4 5 5 5 6 7 7 7 6 6 6
4 4 4 4 4 4 4 4 5 6 6 6 6 6 6 5 3 4 4 4 5 4 4 4 4 4 4 4 5 5 5 4 5 4 4 5 5 6 6 8 8 7 6
4 4 4 4 4 3 2 3 5 5 6 6 6 6 6 6 6 6 5 5 5 6 5 5 5 6 6 6 5 5 5 5 4 3 4 5 5 5 6 6 5 6 7
4 4 4 5 5 4 3 4 5 6 6 6 6 6 5 5 7 7 8 8 7 7 6 7 7 7 6 5 6 7 6 6 5 3 4 5 5 6 6 6 6 7 7
4 5 5 5 5 4 3 4 5 7 6 6 6 7 6 6 6 7 7 8 8 8 8 8 8 7 6 5 6 7 6 6 5 4 4 5 5 6 5 6 7 8 8
5 5 5 5 5 5 3 4 5 6 6 6 6 6 7 7 4 5 7 8 8 7 7 9 8 6 5 4 5 4 5 5 5 5 5 5 5 5 6 6 6 9 9
4 4 5 5 6 6 3 4 6 5 6 6 5 6 6 6 4 6 8 8 8 8 6 6 7 7 7 7 9 8 6 6 5 4 4 4 4 4 4 4 5 6 7
Wind_Direction
81 85 81 81 83 84 84 78 76 71 64 57 55 57 61 61 61 62 66 56 51 57 64 70 72 74 75 75 77 80 81 80 81 82 80 78 75 74 77 80 80 79 80
90 90 85 84 79 77 77 82 79 74 69 63 61 61 60 62 62 62 62 67 60 55 58 64 68 70 72 74 76 78 77 78 81 81 80 77 75 73 74 76 75 76 77
94 95 83 86 86 86 88 81 81 75 70 69 67 66 64 57 60 63 61 58 66 67 61 61 65 70 70 71 75 77 77 77 77 78 78 77 74 72 71 73 72 73 74
96 95 97 97 94 93 93 88 84 82 78 71 69 67 69 64 58 60 64 67 63 66 70 63 65 69 72 72 76 77 77 76 75 76 76 76 76 74 72 72 72 70 68
110 112 103 104 103 102 96 100 99 92 87 77 77 73 68 68 64 59 61 61 68 66 71 75 73 69 69 73 75 77 80 80 76 75 75 75 75 75 74 72 71 71 69
118 114 123 121 117 122 121 129 128 119 93 91 89 79 68 77 72 58 54 56 59 62 60 66 77 77 70 68 74 76 78 82 80 77 76 75 74 76 75 74 74 73 70
159 148 153 141 132 135 151 151 143 141 128 137 139 121 100 81 72 71 58 57 62 59 59 62 62 68 80 77 72 72 71 75 78 80 77 74 71 72 72 71 70 70 69
179 182 181 170 163 164 181 180 180 193 158 188 226 201 172 146 101 77 73 61 63 73 58 56 64 66 63 69 72 68 66 70 72 76 78 78 72 69 69 69 70 68 66
203 203 195 192 189 195 198 205 203 206 197 193 275 284 260 218 145 127 86 82 67 66 68 60 59 62 68 67 73 71 68 66 70 74 77 78 75 70 69 70 69 65 61
206 211 205 203 202 212 217 219 217 226 219 210 199 286 312 320 239 183 163 129 86 65 65 73 64 65 68 71 71 66 69 64 65 69 75 78 80 75 70 68 65 65 61
211 215 216 211 210 216 223 225 225 233 228 234 220 201 212 240 261 249 207 183 168 148 106 84 91 75 76 78 77 73 69 63 58 60 66 69 71 71 69 65 62 63 59
215 218 217 217 215 217 222 226 226 224 233 231 233 227 228 233 234 238 234 210 205 178 175 173 181 134 111 106 83 79 71 65 60 53 51 51 50 58 60 60 57 57 61
220 221 220 222 222 223 224 225 229 230 226 228 233 235 235 249 252 245 242 232 230 205 194 199 192 188 182 167 122 117 103 79 64 41 23 24 30 35 38 31 3 336 351
234 228 225 224 223 221 223 224 229 227 224 223 230 235 234 237 240 245 247 243 241 230 218 211 191 202 200 197 135 209 155 141 121 1 331 326 326 330 343 323 322 310 299
226 229 231 227 219 215 219 220 224 219 219 223 222 223 232 230 234 241 247 251 255 254 243 218 209 201 208 205 185 218 206 142 191 213 249 274 282 280 281 284 277 274 280
219 223 233 230 222 216 214 216 223 222 221 221 227 229 230 234 231 230 237 247 258 263 258 230 222 200 199 211 200 229 225 168 200 207 231 256 264 266 266 267 267 263 263
226 229 230 230 223 217 217 216 224 221 225 223 224 228 228 228 232 225 226 233 239 243 242 237 223 213 208 219 199 223 229 228 207 197 225 246 252 254 257 258 255 256 259
229 235 231 227 227 224 219 217 221 222 225 227 227 229 230 224 234 234 227 228 230 237 239 237 219 215 221 224 218 223 230 234 239 183 209 231 238 241 246 253 258 257 259
227 232 230 229 230 231 226 223 222 224 227 231 232 232 231 226 229 229 232 234 231 233 239 233 227 214 224 219 224 231 235 236 243 203 208 219 225 233 241 246 251 252 253
229 233 233 233 232 232 231 231 230 229 231 233 236 236 236 234 234 229 228 232 231 228 227 231 230 218 218 215 226 230 233 229 240 234 228 232 223 226 231 237 241 245 247
236 241 240 238 235 230 231 238 235 233 234 233 233 233 233 240 259 243 235 230 226 232 230 230 231 227 221 215 229 230 239 240 237 235 242 240 231 235 229 226 228 234 246
233 235 240 242 240 232 216 240 254 240 237 235 236 236 230 223 225 226 236 240 238 235 233 233 234 236 236 230 231 232 235 238 245 221 247 257 244 248 242 241 214 224 244
227 235 238 242 243 236 202 215 237 249 243 243 242 239 234 231 224 228 219 217 228 241 247 250 249 249 250 238 227 230 234 240 252 240 238 254 246 248 243 234 209 225 239
228 236 240 244 250 243 208 220 226 240 245 245 245 244 241 241 230 234 229 225 229 225 229 242 256 261 260 254 236 237 244 243 256 236 229 257 255 252 248 239 213 220 229
234 235 240 244 246 246 221 229 233 239 245 245 246 244 244 245 219 223 236 236 238 236 222 234 261 281 291 262 242 235 231 232 251 243 225 248 259 260 255 246 219 208 222
240 243 242 243 246 252 235 231 240 240 244 245 245 244 238 247 224 208 233 241 243 243 235 231 240 248 248 230 217 228 231 235 247 247 218 234 251 255 259 241 229 223 226
Height
1553 1553 1553 1552 1552 1552 1552 1552 1552 1552 1552 1551 1551 1550 1550 1549 1549 1548 1547 1546 1545 1544 1544 1542 1542 1541 1541 1540 1539 1539 1539 1539 1539 1540 1540 1541 1541 1541 1541 1541 1541 1541 1541
1554 1554 1554 1553 1553 1553 1553 1553 1553 1553 1553 1552 1551 1551 1551 1550 1550 1549 1549 1548 1547 1546 1545 1544 1544 1543 1542 1542 1541 1541 1541 1541 1541 1541 1541 1542 1542 1542 1542 1542 1542 1542 1542
1554 1554 1554 1554 1554 1554 1554 1554 1554 1554 1553 1553 1553 1552 1552 1552 1552 1551 1551 1550 1549 1548 1547 1546 1545 1545 1544 1543 1543 1543 1542 1542 1542 1542 1542 1543 1543 1543 1542 1542 1542 1542 1542
1555 1554 1554 1554 1554 1554 1554 1555 1555 1555 1554 1554 1554 1554 1553 1553 1553 1553 1552 1552 1551 1550 1549 1548 1547 1546 1546 1545 1545 1544 1544 1544 1544 1543 1543 1544 1544 1543 1543 1543 1543 1543 1543
1555 1554 1554 1554 1554 1554 1555 1555 1555 1555 1555 1555 1554 1554 1554 1554 1554 1553 1553 1553 1552 1551 1551 1549 1549 1548 1547 1547 1546 1546 1545 1545 1545 1545 1544 1544 1544 1544 1544 1544 1544 1544 1544
1555 1555 1554 1555 1555 1555 1555 1555 1555 1555 1555 1555 1555 1555 1555 1555 1554 1554 1554 1553 1553 1553 1552 1551 1551 1550 1549 1548 1548 1547 1547 1546 1546 1545 1545 1545 1545 1545 1545 1544 1544 1544 1544
1555 1555 1555 1555 1555 1555 1555 1555 1555 1555 1555 1555 1556 1556 1556 1555 1555 1554 1554 1554 1554 1553 1553 1552 1552 1551 1550 1549 1548 1548 1547 1547 1546 1546 1546 1545 1545 1545 1545 1545 1545 1545 1544
1554 1554 1555 1555 1555 1555 1555 1555 1555 1555 1555 1555 1556 1556 1557 1557 1555 1555 1554 1554 1554 1553 1553 1552 1552 1552 1551 1550 1549 1548 1548 1547 1547 1546 1546 1546 1545 1545 1545 1545 1545 1544 1544
1554 1554 1554 1554 1554 1554 1554 1554 1554 1554 1555 1555 1555 1556 1556 1555 1556 1556 1555 1554 1553 1553 1553 1552 1552 1552 1551 1550 1550 1548 1548 1547 1547 1547 1546 1546 1545 1545 1545 1545 1544 1544 1544
1553 1553 1553 1553 1553 1553 1553 1554 1553 1553 1554 1554 1554 1554 1555 1555 1555 1555 1555 1554 1553 1553 1552 1552 1551 1551 1550 1550 1549 1548 1548 1547 1547 1546 1546 1546 1546 1545 1545 1544 1544 1544 1543
1551 1552 1552 1552 1552 1552 1552 1552 1552 1552 1552 1553 1553 1553 1553 1553 1554 1554 1554 1554 1553 1552 1551 1551 1551 1550 1550 1549 1548 1548 1547 1547 1546 1546 1545 1545 1545 1545 1544 1544 1544 1543 1543
1550 1550 1550 1550 1550 1550 1550 1550 1550 1550 1550 1551 1551 1552 1552 1552 1552 1553 1552 1552 1552 1551 1550 1550 1550 1549 1549 1548 1547 1547 1546 1546 1546 1545 1545 1544 1544 1544 1543 1543 1543 1542 1542
1548 1548 1548 1548 1548 1548 1548 1548 1548 1549 1549 1549 1549 1550 1550 1550 1551 1551 1551 1551 1551 1550 1549 1549 1548 1548 1548 1547 1546 1546 1545 1545 1545 1544 1544 1543 1543 1542 1542 1542 1541 1541 1540
1545 1546 1546 1546 1546 1546 1546 1546 1546 1547 1547 1547 1547 1547 1547 1548 1548 1548 1549 1549 1549 1549 1548 1548 1547 1546 1546 1546 1545 1544 1544 1544 1543 1543 1543 1542 1542 1541 1541 1540 1540 1539 1539
1543 1543 1543 1544 1544 1544 1544 1544 1544 1545 1545 1545 1545 1545 1545 1545 1545 1546 1546 1547 1548 1547 1547 1546 1545 1544 1544 1544 1543 1543 1543 1542 1541 1541 1541 1540 1540 1539 1539 1539 1538 1538 1537
1540 1541 1541 1541 1541 1541 1541 1542 1542 1542 1542 1542 1542 1543 1542 1543 1543 1543 1543 1544 1544 1545 1544 1544 1543 1542 1541 1541 1541 1541 1541 1539 1539 1539 1538 1538 1538 1537 1537 1536 1536 1536 1535
1538 1538 1538 1538 1539 1539 1539 1539 1539 1540 1540 1540 1540 1540 1540 1540 1540 1540 1540 1540 1541 1541 1541 1541 1540 1540 1539 1539 1538 1538 1538 1538 1537 1536 1536 1535 1535 1535 1534 1534 1533 1533 1532
1535 1535 1535 1535 1535 1536 1536 1536 1536 1537 1537 1537 1537 1537 1537 1537 1537 1537 1537 1537 1538 1538 1538 1538 1538 1537 1537 1537 1536 1535 1535 1535 1535 1534 1533 1532 1532 1532 1531 1531 1530 1529 1529
1532 1532 1532 1532 1532 1532 1533 1533 1533 1533 1534 1534 1534 1534 1534 1534 1534 1534 1534 1534 1534 1535 1535 1535 1535 1534 1534 1534 1533 1533 1533 1532 1532 1531 1530 1529 1529 1528 1528 1527 1526 1525 1525
1529 1529 1529 1529 1529 1529 1529 1529 1530 1530 1530 1530 1530 1530 1531 1531 1531 1531 1531 1531 1531 1531 1531 1532 1531 1531 1531 1530 1530 1530 1530 1529 1529 1528 1527 1526 1525 1525 1524 1523 1522 1522 1521
1526 1526 1526 1526 1526 1526 1526 1526 1526 1526 1527 1527 1527 1527 1527 1527 1527 1527 1528 1528 1528 1528 1528 1528 1528 1528 1527 1527 1527 1527 1527 1526 1525 1525 1524 1523 1522 1521 1521 1519 1519 1518 1517
1522 1523 1523 1523 1523 1522 1522 1522 1522 1523 1523 1523 1523 1523 1523 1523 1523 1523 1524 1524 1524 1525 1525 1525 1525 1524 1524 1524 1524 1523 1523 1523 1522 1522 1520 1520 1519 1518 1517 1516 1515 1514 1512
1519 1519 1519 1519 1519 1519 1519 1519 1519 1519 1519 1519 1520 1520 1519 1519 1519 1520 1520 1520 1520 1520 1521 1521 1521 1521 1521 1520 1520 1520 1519 1519 1519 1518 1517 1516 1515 1514 1513 1512 1511 1510 1508
1516 1515 1515 1515 1515 1515 1515 1515 1515 1516 1516 1516 1516 1516 1516 1516 1516 1516 1516 1516 1516 1516 1516 1517 1517 1517 1517 1516 1516 1516 1516 1515 1515 1514 1513 1512 1512 1511 1509 1508 1507 1506 1505
1512 1512 1512 1511 1511 1511 1511 1511 1511 1512 1512 1512 1512 1512 1512 1512 1511 1512 1512 1512 1512 1511 1512 1512 1512 1511 1511 1511 1511 1511 1511 1511 1510 1510 1509 1508 1507 1506 1505 1504 1503 1502 1501
1508 1508 1508 1507 1507 1507 1507 1507 1507 1508 1507 1507 1507 1507 1507 1507 1507 1507 1507 1508 1507 1507 1507 1507 1507 1507 1507 1506 1506 1507 1506 1506 1506 1506 1504 1504 1503 1503 1501 1501 1500 1498 1497